STARLINK-4062 (53261 NORAD) Tracking and Keplerian Element Data

This shows tracking and keplerian element data for the satellite.

Feedback or suggestion? Click here.




ElementValue
Catalog53261
NameSTARLINK-4062
Epoch Orbit1074
Epoch Day270.25001157
Epoch Year2022
RAAN88.1502
Inclination53.2175
Eccentricity0.0001302
Argument of Perigee90.0766
Mean Anonmoly176.0385
Mean Motion15.2075222
Decay Rate-0.01063804
L11 53261U 22086V 22270.25001157 -.01063804 00000+0 -52130-1 0 9994
L22 53261 53.2175 88.1502 0001302 90.0766 176.0385 15.20752220 10748

Live tracking and technical data element details for STARLINK-4062 (NORAD 53261). STARLINK-4062 can be tracked NOW for your location showing map with azimuth and elevation plus other details from your city location.

Track the satellite on the map from your city or location and see movement details for azimuth, elevation, latitude, longitude, range, height, and movement on the map or in text.







IsCatalogInMostPopularTable: catalog: 53261, numindb: 7
Update: records affected: 1



GetName: 53261 STARLINK-4062

Hit Count: updated at: Fri, 30 Sep 2022 02:15:24 GMT